Regional Weather Roundup
Issued by NWS

Home | Current Version | Previous Version | Graphics & Text | Print | Product List | Glossary On
Versions: 1 2 3 4 5 6 7 8 9 10 11 12 13 14 15 16 17 18 19 20 21 22 23 24 25 26 27 28 29 30 31 32 33 34 35 36 37 38 39 40 41 42 43 44 45 46 47 48 49 50
433
ASUS43 KMPX 170001
RWRMN
WEATHER ROUNDUP FOR MINNESOTA
NATIONAL WEATHER SERVICE TWIN CITIES/CHANHASSEN MN
600 PM CST SAT DEC 16 2017


NOTE: "FAIR" INDICATES FEW OR NO CLOUDS BELOW 12,000 FEET WITH NO
SIGNIFICANT WEATHER AND/OR OBSTRUCTIONS TO VISIBILITY. N/A MEANS
CURRENT SKY AND/OR WEATHER CONDITIONS ARE NOT AVAILABLE.

MNZ060>063-068>070-170100-
   Twin Cities Metro

CITY           SKY/WX    TMP DP  RH WIND       PRES   REMARKS
TWIN CITIES    CLOUDY    27  22  81 E7        30.03R WCI  19
6HR MIN TEMP:  27; 6HR MAX TEMP:  29;

ST PAUL        CLOUDY    27  19  72 NE6       30.05R WCI  20
CRYSTAL        CLOUDY    27  18  69 NE6       30.02R WCI  20
BLAINE         CLOUDY    28  21  74 NE5       30.02R WCI  23
LAKEVILLE        N/A     25  23  93 E7        30.01R WCI  17
EDEN PRAIRIE   CLOUDY    28  23  81 N5        30.01R WCI  23
6HR MIN TEMP:  28; 6HR MAX TEMP:  30;

SOUTH ST PAUL  PTCLDY    27  20  75 CALM      30.03R
LAKE ELMO      FAIR      27  19  74 E7        30.04R WCI  19
$$
MNZ001>005-007-008-013>017-022>024-027-028-170100-
   Northwest Minnesota

CITY           SKY/WX    TMP DP  RH WIND       PRES   REMARKS
BEMIDJI        CLOUDY    23  20  89 S3        29.97R
HALLOCK        CLOUDY    19  18  93 CALM      29.98R
ROSEAU         CLOUDY    18  14  86 CALM      29.98R FOG
WARROAD        CLOUDY    18  12  79 CALM      29.98S FOG
CROOKSTON      FOG       14  12  92 SW6       30.02R VSB 1/4 WCI   5
FOSSTON        CLOUDY    23  21  93 W6        29.99R FOG     WCI  16
DETROIT LAKES  CLOUDY    28  28 100 NW5       29.99S WCI  23
MOORHEAD       CLOUDY    25  25 100 CALM      30.02R
PARK RAPIDS    CLOUDY    24  21  88 S3        29.98R
MAHNOMEN       CLOUDY    26  25  96 NW5       29.99R WCI  20
$$
MNZ006-009>011-018-025>026-170100-
   North Central Minnesota

CITY           SKY/WX    TMP DP  RH WIND       PRES   REMARKS
BAUDETTE       CLOUDY    12  11  95 SE5       29.97S WCI   4
FLAG ISLAND    CLOUDY    10   9  92 S8        29.99R FOG     WCI  -1
INTL FALLS     CLOUDY    12   9  87 SE6       30.00S FOG     WCI   3
6HR MIN TEMP:   5; 6HR MAX TEMP:  12; 6HR PCP:  0.01;

WASKISH        CLOUDY    19  19 100 CALM      29.98R
BIG FORK       CLOUDY    21  18  86 S5        29.99R WCI  15
LONGVILLE      CLOUDY    21  16  79 CALM      30.00R
GRAND RAPIDS   CLOUDY    21  14  74 S6        30.02R WCI  13
CRANE LAKE     CLOUDY    14  10  85 CALM      30.04R
ORR            CLOUDY    16  12  86 SE3       29.98R
COOK           CLOUDY    18  16  93 SE5       30.01R WCI  11
WALKER         CLOUDY    22  18  83 S3        29.98R
$$
MNZ012-019>021-037-170100-
   Northeast Minnesota

CITY           SKY/WX    TMP DP  RH WIND       PRES   REMARKS
DULUTH         CLOUDY    21  16  81 SE8       30.01R WCI  11
6HR MIN TEMP:  19; 6HR MAX TEMP:  21; 6HR PCP: TRACE;

ELY            CLOUDY    19  16  86 SE7       30.01R WCI  10
HIBBING        CLOUDY    20  16  84 S5        30.01R WCI  13
EVELETH        CLOUDY    20  14  77 SE6       30.01S WCI  12
DULUTH HARBOR  CLOUDY    25  16  68 E7        30.09R WCI  17
TWO HARBORS    CLOUDY    27  19  74 E5        30.03R WCI  21
SILVER BAY     CLOUDY    25  18  74 E3        30.04R
GRAND MARAIS     N/A     22  17  81 NE8       30.11R WCI  12
G MARAIS ARPRT CLOUDY    16  10  79 E3        30.03R
$$
MNZ029>031-032-039>041-046>048-054>057-064-170100-
   West Central Minnesota

CITY           SKY/WX    TMP DP  RH WIND       PRES   REMARKS
FERGUS FALLS   CLOUDY    28  27  93 CALM      30.04R
WHEATON        CLOUDY    30  28  93 NE3       30.03R
MORRIS         CLOUDY    30  28  93 CALM      30.01R
ALEXANDRIA     CLOUDY    28  25  88 CALM      30.00R
ELBOW LAKE     FAIR      28  26  94 N3        30.01R
WADENA         CLOUDY    25  21  86 CALM      30.00R
GLENWOOD       CLOUDY    27  25  93 E6        30.01R WCI  20
APPLETON       CLOUDY    30  28  93 CALM      30.02R
BENSON         CLOUDY    30  27  86 CALM      30.03R
ORTONVILLE     CLOUDY    30  27  86 CALM      30.02R
MADISON        CLOUDY    34  30  86 NE3       30.01R
WILLMAR        CLOUDY    28  27  93 NE3       30.03R
$$
MNZ033>034-036-042>043-049>051-058-059-170100-
   Central Minnesota

CITY           SKY/WX    TMP DP  RH WIND       PRES   REMARKS
ST CLOUD       CLOUDY    24  20  84 E5        30.03R WCI  18
6HR MIN TEMP:  24; 6HR MAX TEMP:  25;

SAUK CENTRE    CLOUDY    26  24  92 E3        30.01R
PAYNESVILLE    CLOUDY    26  25  97 NE3       30.02R
AITKIN         CLOUDY    19  16  86 CALM      30.01R
PINE RIVER     CLOUDY    21  16  79 CALM      30.04R
BRAINERD       CLOUDY    21  17  84 SE3       30.02R
STAPLES        CLOUDY    23  19  86 CALM      30.00R
LITTLE FALLS   CLOUDY    27  19  74 CALM      30.03R
LITCHFIELD     CLOUDY    27  27 100 NE6       30.02R WCI  20
BUFFALO        CLOUDY    27  23  85 N5        30.03R WCI  21
MAPLE LAKE     CLOUDY    27  24  89 N6        30.03R WCI  20
HUTCHINSON     CLOUDY    28  25  88 NE7       30.02R WCI  21
$$
MNZ037-044-045-052-053-170100-
   East Central Minnesota

CITY           SKY/WX    TMP DP  RH WIND       PRES   REMARKS
PRINCETON      CLOUDY    25  19  80 N5        30.03S WCI  19
MORA           CLOUDY    21  16  79 CALM      30.06R
CAMBRIDGE      CLOUDY    25  16  68 N3        30.04S
RUSH CITY      CLOUDY    21  16  79 NE5       30.05R WCI  15
MOOSE LAKE     CLOUDY    21  12  68 CALM      30.03R
HINCKLEY       CLOUDY    23  18  80 CALM      30.05R
CLOQUET        CLOUDY    19  12  73 SE3       30.03R
MCGREGOR       CLOUDY    23  16  74 SE3       30.03R
$$
MNZ071>073-080-081-089-090-097-098-170100-
   Southwest Minnesota

CITY           SKY/WX    TMP DP  RH WIND       PRES   REMARKS
MONTEVIDEO     MOCLDY    30  27  86 E5        30.02R WCI  25
GRANITE FALLS  PTCLDY    31  27  86 N5        30.02R WCI  26
CANBY          CLOUDY    35  31  87 E3        30.02R
MARSHALL       PTCLDY    30  27  88 NE7       30.01R WCI  23
REDWOOD FALLS  CLOUDY    30  26  85 NE3       30.01R
OLIVIA         PTCLDY    30  28  93 NE7       30.01R WCI  23
PIPESTONE      CLOUDY    34  28  80 CALM      29.96R
WINDOM           N/A     30  18  59 N6        29.98R WCI  24
WORTHINGTON    CLOUDY    32  27  81 N10       29.96R WCI  24
JACKSON        PTCLDY    30  27  86 NE6       29.98R WCI  24
SLAYTON        CLOUDY    33  29  88 N5        29.97R WCI  28
$$
MNZ065>067-074>077-082>085-091>093-170100-
   South Central Minnesota

CITY           SKY/WX    TMP DP  RH WIND       PRES   REMARKS
MANKATO        CLOUDY    29  26  89 NE8       30.01R WCI  21
NEW ULM        CLOUDY    28  25  86 NE6       30.01R WCI  22
ST JAMES       CLOUDY    28  27  93 N8        30.00S WCI  20
FAIRMONT       CLOUDY    32  28  85 N8        29.98R WCI  25
GLENCOE        CLOUDY    29  29 100 N5        30.01R WCI  24
FARIBAULT      CLOUDY    28  27  93 N5        30.01R WCI  23
OWATONNA       CLOUDY    28  27  93 NE6       30.00R WCI  22
WASECA         MOCLDY    32  30  93 NE6       30.00R WCI  26
$$
MNZ078>079-086>088-094>096-170100-
   Southeast Minnesota

CITY           SKY/WX    TMP DP  RH WIND       PRES   REMARKS
ROCHESTER      CLOUDY    26  24  92 NE10      29.98R WCI  16
6HR MIN TEMP:  26; 6HR MAX TEMP:  38;

RED WING       PTCLDY    27  18  69 E5        30.03R WCI  21
STANTON        CLOUDY    29  25  84 NE3       30.01R
DODGE CENTER   CLOUDY    27  25  93 NE9       29.98R WCI  17
WINONA         PTCLDY    30  23  74 E3        30.04R
AUSTIN         CLEAR     30  27  86 NE5       29.97R WCI  25
PRESTON        CLOUDY    27  23  85 NE7       29.98R WCI  19
$$
ABBREVIATIONS USED IN REMARKS
   TC - TEMPERATURES IN CELSIUS
  WCI - WIND CHILL INDEX
   HX - HEAT INDEX
  VSB - VISIBILITY
$$




USA.gov is the U.S. government's official web portal to all federal, state and local government web resources and services.